Location: Camerons Lookout
(40.9833°S, 175.9333°E)
Time: 05:53:52
(UTC+00:00)

Helios 1A - Pass Details

Date: 14 January 2026
Orbit: 542 x 561 km, 98.2° (Epoch: 17 February)

Event Time Altitude Azimuth Distance (km) Brightness Sun altitude
Exits shadow 08:37:03 10° 42° (NE) 1,796 4.8 -8.3°
Maximum altitude 08:40:37 37° 109° (ESE) 879 3.6 -8.8°
Drops below altitude 10° 08:44:19 10° 176° (S) 1,852 6.0 -9.4°
Sets 08:46:34 0° 184° (S) 2,758 7.1 -9.7°
